CW2969 Weather Reports


time (UTC)temp
F
wind
direction
speed
knots
gust
knots
rain 1hr
in
rain 24hr
in
rain mn
in
humidity
%
barometer
mb
20260904191021 86 135 1.7 2.6 0.00 0.02 0.02 75 1012.7
20260904190522 86 68 0.9 2.6 0.00 0.02 0.02 76 1012.8
20260904190021 86 123 0.9 5.2 0.00 0.02 0.02 76 1013.0
20260904185521 86 74 3.5 5.2 0.00 0.02 0.02 76 1013.1
20260904185021 86 90 0.9 5.2 0.00 0.02 0.02 76 1013.2
20260904184521 86 117 0.0 5.2 0.00 0.02 0.02 76 1013.3
20260904184021 85 102 0.0 3.5 0.00 0.02 0.02 77 1013.4
20260904183521 85 98 1.7 5.2 0.00 0.02 0.02 77 1013.4
20260904183021 85 107 1.7 5.2 0.00 0.02 0.02 77 1013.5
20260904182521 85 129 1.7 2.6 0.00 0.02 0.02 77 1013.5
20260904182021 85 126 0.0 2.6 0.00 0.02 0.02 78 1013.5
20260904181021 85 108 0.0 2.6 0.00 0.02 0.02 78 1013.5
20260904180521 85 153 1.7 5.2 0.00 0.02 0.02 78 1013.6
20260904180021 84 142 0.9 5.2 0.00 0.02 0.02 78 1013.6
20260904175021 84 157 1.7 1.7 0.00 0.02 0.02 78 1013.7
20260904174521 84 79 0.9 1.7 0.00 0.02 0.02 79 1013.7
20260904173020 84 299 0.9 1.7 0.00 0.02 0.02 79 1013.8
20260904172521 84 109 1.7 1.7 0.00 0.02 0.02 79 1013.9
20260904171521 84 145 0.0 0.9 0.00 0.02 0.02 79 1013.9
20260904171021 83 145 0.0 2.6 0.00 0.02 0.02 80 1013.9
20260904170520 83 170 0.0 2.6 0.00 0.02 0.02 80 1013.9
20260904170020 83 111 0.0 0.9 0.00 0.02 0.02 80 1013.9
20260904165520 83 100 0.0 1.7 0.00 0.02 0.02 80 1013.9
20260904165020 83 124 0.0 3.5 0.00 0.02 0.02 80 1013.9
20260904164520 83 126 0.9 3.5 0.00 0.02 0.02 80 1013.9
20260904164020 83 159 0.9 5.2 0.00 0.02 0.02 80 1013.8
20260904163520 83 168 1.7 5.2 0.00 0.02 0.02 80 1013.7
20260904163020 83 134 0.9 4.3 0.00 0.02 0.02 80 1013.7
20260904162520 82 141 4.3 4.3 0.00 0.02 0.02 81 1013.6
20260904162020 82 140 4.3 7.8 0.00 0.02 0.02 81 1013.7
20260904161520 82 126 7.8 7.8 0.00 0.02 0.02 81 1013.6
20260904160519 82 182 0.9 3.5 0.01 0.02 0.02 81 1013.5
20260904160019 82 284 0.0 0.9 0.01 0.02 0.02 81 1013.5
20260904155519 82 100 0.0 2.6 0.02 0.02 0.02 81 1013.5
20260904155020 81 198 1.7 2.6 0.02 0.02 0.02 81 1013.5
20260904154519 81 180 0.0 6.1 0.02 0.02 0.02 81 1013.4
20260904154019 81 252 1.7 6.1 0.02 0.02 0.02 81 1013.4
20260904153519 81 201 0.0 1.7 0.02 0.02 0.02 81 1013.4
20260904153019 81 178 0.9 1.7 0.02 0.02 0.02 81 1013.4
20260904152519 81 256 0.9 2.6 0.02 0.02 0.02 81 1013.4
20260904152019 81 203 0.9 2.6 0.02 0.02 0.02 81 1013.3
20260904151018 81 219 0.0 1.7 0.01 0.01 0.01 81 1013.4
20260904150018 81 256 1.7 2.6 0.01 0.01 0.01 81 1013.3
20260904145519 81 248 1.7 2.6 0.00 0.00 0.00 81 1013.4
20260904145018 81 274 0.9 2.6 0.00 0.00 0.00 81 1013.4
20260904144518 81 302 0.9 2.6 0.00 0.00 0.00 81 1013.4
20260904144018 81 224 0.0 2.6 0.00 0.00 0.00 81 1013.4
20260904143519 81 250 0.0 4.3 0.00 0.00 0.00 81 1013.3
20260904143018 81 263 1.7 4.3 0.00 0.00 0.00 81 1013.3
20260904142518 81 265 0.0 1.7 0.00 0.00 0.00 81 1013.3
20260904141518 81 315 2.6 3.5 0.00 0.00 0.00 81 1013.4
20260904141018 81 215 0.9 1.7 0.00 0.00 0.00 81 1013.5
20260904140518 81 140 0.0 1.7 0.00 0.00 0.00 81 1013.5
20260904135518 81 140 0.0 1.7 0.00 0.00 0.00 81 1013.5
20260904135018 81 132 0.0 0.0 0.00 0.00 0.00 81 1013.5
20260904134518 81 132 0.0 0.9 0.00 0.00 0.00 81 1013.5
20260904133519 81 214 0.0 0.9 0.00 0.00 0.00 81 1013.4
20260904133017 81 192 0.0 0.9 0.00 0.00 0.00 81 1013.3
20260904132517 81 119 0.0 0.0 0.00 0.00 0.00 81 1013.2
20260904132018 81 119 0.0 0.0 0.00 0.00 0.00 81 1013.3
20260904131517 81 119 0.0 0.0 0.00 0.00 0.00 82 1013.2
20260904131017 81 152 0.0 0.0 0.00 0.00 0.00 81 1013.2
20260904130517 81 230 0.0 1.7 0.00 0.00 0.00 81 1013.2
20260904130017 81 134 1.7 1.7 0.00 0.00 0.00 81 1013.1
20260904125017 81 213 0.0 1.7 0.00 0.00 0.00 81 1013.1
20260904124517 81 137 0.0 0.9 0.00 0.00 0.00 81 1013.0
20260904124016 81 137 0.0 0.9 0.00 0.00 0.00 81 1012.9
20260904123517 81 121 0.0 0.9 0.00 0.00 0.00 81 1012.9
20260904123016 81 185 0.9 1.7 0.00 0.00 0.00 81 1012.8
20260904122516 81 178 1.7 1.7 0.00 0.00 0.00 81 1012.7
20260904122016 81 250 0.9 2.6 0.00 0.00 0.00 81 1012.7
20260904121516 81 142 2.6 2.6 0.00 0.00 0.00 81 1012.6
20260904120516 81 110 0.9 4.3 0.00 0.00 0.00 81 1012.4
20260904115516 81 138 2.6 6.1 0.00 0.00 0.00 81 1012.3
20260904115016 81 161 4.3 4.3 0.00 0.00 0.00 81 1012.4
20260904114516 81 123 0.9 6.1 0.00 0.00 0.00 81 1012.4
20260904114016 81 105 6.1 8.7 0.00 0.00 0.00 81 1012.4
20260904113516 81 100 7.0 8.7 0.00 0.00 0.00 81 1012.5
20260904113016 81 125 6.1 8.7 0.00 0.00 0.00 81 1012.4
20260904112516 81 134 7.0 8.7 0.00 0.00 0.00 81 1012.4
20260904112015 81 56 0.9 6.1 0.00 0.00 0.00 81 1012.3
20260904111515 81 113 0.9 3.5 0.00 0.00 0.00 81 1012.2
20260904110515 81 106 0.0 3.5 0.00 0.00 0.00 81 1012.0
20260904110015 81 132 0.0 3.5 0.00 0.00 0.00 81 1012.0
20260904105515 81 106 2.6 2.6 0.00 0.00 0.00 81 1012.2
20260904105015 81 129 0.0 4.3 0.00 0.00 0.00 81 1012.2
20260904104516 81 119 4.3 4.3 0.00 0.00 0.00 81 1012.2
20260904104015 81 144 3.5 4.3 0.00 0.00 0.00 81 1012.1
20260904103515 81 109 0.0 1.7 0.00 0.00 0.00 81 1012.0
20260904102515 81 143 0.0 1.7 0.00 0.00 0.00 81 1011.9
20260904102015 81 119 0.0 1.7 0.00 0.00 0.00 81 1011.9
20260904101515 81 137 0.0 0.0 0.00 0.00 0.00 81 1011.9
20260904101015 81 140 0.0 1.7 0.00 0.00 0.00 81 1011.9
20260904100515 81 140 0.9 1.7 0.00 0.00 0.00 80 1011.9
20260904100015 82 101 0.0 1.7 0.00 0.00 0.00 80 1011.8
20260904095014 82 139 0.9 2.6 0.00 0.00 0.00 80 1011.9
20260904094514 82 122 0.0 5.2 0.00 0.00 0.00 80 1011.8
20260904094014 82 145 1.7 5.2 0.00 0.00 0.00 80 1011.9
20260904093514 82 157 0.0 2.6 0.00 0.00 0.00 80 1011.9
20260904093014 82 123 0.9 3.5 0.00 0.00 0.00 80 1011.9
20260904092514 82 136 1.7 3.5 0.00 0.00 0.00 80 1011.8
20260904092014 82 132 3.5 3.5 0.00 0.00 0.00 80 1011.8
20260904091514 82 150 0.9 3.5 0.00 0.00 0.00 80 1011.9
20260904090514 82 146 1.7 2.6 0.00 0.00 0.00 80 1011.8
20260904090014 82 153 0.0 3.5 0.00 0.00 0.00 80 1011.8
20260904085514 82 140 0.9 3.5 0.00 0.00 0.00 80 1011.7
20260904085014 82 119 1.7 3.5 0.00 0.00 0.00 80 1011.6
20260904084514 82 225 2.6 5.2 0.00 0.00 0.00 80 1011.7
20260904084014 82 109 1.7 5.2 0.00 0.00 0.00 80 1011.7
20260904083014 82 152 1.7 2.6 0.00 0.00 0.00 80 1011.8
20260904082514 82 140 0.0 1.7 0.00 0.00 0.00 79 1011.8
20260904082014 82 170 0.0 1.7 0.00 0.00 0.00 79 1011.8
20260904081514 82 117 1.7 5.2 0.00 0.00 0.00 79 1011.8
20260904081013 82 98 1.7 5.2 0.00 0.00 0.00 79 1011.8
20260904080513 82 123 0.0 3.5 0.00 0.00 0.00 79 1011.8
20260904074013 82 189 0.0 2.6 0.00 0.00 0.00 79 1011.9
20260904072513 82 150 0.0 1.7 0.00 0.00 0.00 79 1011.9
20260904071513 82 219 0.9 3.5 0.00 0.00 0.00 78 1012.1
20260904071013 82 207 0.9 3.5 0.00 0.00 0.00 78 1012.1
20260904070013 82 108 1.7 5.2 0.00 0.00 0.00 78 1012.3
20260904065513 82 152 1.7 5.2 0.00 0.00 0.00 78 1012.3
20260904065013 82 165 0.9 5.2 0.00 0.00 0.00 78 1012.3
20260904064513 82 173 2.6 2.6 0.00 0.00 0.00 78 1012.3
20260904063513 82 113 0.0 2.6 0.00 0.00 0.00 77 1012.3
20260904063013 82 117 2.6 3.5 0.00 0.00 0.00 77 1012.3
20260904062512 82 127 0.0 3.5 0.00 0.00 0.00 77 1012.3
20260904062012 82 212 1.7 4.3 0.00 0.00 0.00 77 1012.2
20260904061512 82 161 3.5 4.3 0.00 0.00 0.00 77 1012.2
20260904060012 82 134 3.5 3.5 0.00 0.00 0.00 76 1012.3
20260904055512 82 223 0.0 4.3 0.00 0.00 0.00 76 1012.1
20260904055012 82 238 1.7 4.3 0.00 0.00 0.00 76 1012.2
20260904054512 82 143 0.9 3.5 0.00 0.00 0.00 76 1012.1
20260904054012 82 116 0.9 7.0 0.00 0.00 0.00 76 1012.1
20260904053512 83 260 0.9 7.8 0.00 0.00 0.00 76 1012.0
20260904052011 83 205 3.5 8.7 0.00 0.00 0.00 75 1012.0
20260904051012 83 140 0.0 3.5 0.00 0.00 0.00 75 1011.9
20260904050011 83 138 4.3 4.3 0.00 0.00 0.00 75 1011.9
20260904045511 83 157 2.6 3.5 0.00 0.00 0.00 75 1011.9
20260904045011 83 126 2.6 3.5 0.00 0.00 0.00 75 1011.9
20260904044511 83 213 1.7 3.5 0.00 0.00 0.00 75 1012.0
20260904043511 83 126 1.7 7.0 0.00 0.00 0.00 74 1011.8
20260904043011 83 153 0.9 7.0 0.00 0.00 0.00 74 1011.9
20260904042511 83 143 0.9 4.3 0.00 0.00 0.00 74 1011.9
20260904042011 83 138 0.0 5.2 0.00 0.00 0.00 74 1011.9
20260904041511 83 49 0.9 9.6 0.00 0.00 0.00 74 1011.9
20260904041011 83 129 4.3 9.6 0.00 0.00 0.00 73 1011.9
20260904040511 83 122 3.5 8.7 0.00 0.00 0.00 73 1011.8
20260904040011 83 277 0.9 5.2 0.00 0.00 0.00 73 1011.8
20260904035511 83 150 2.6 7.8 0.00 0.00 0.00 73 1011.6
20260904034511 83 115 2.6 7.0 0.00 0.00 0.00 73 1011.8
20260904034011 84 167 3.5 7.0 0.00 0.00 0.00 72 1011.8
20260904033510 84 136 0.9 4.3 0.00 0.00 0.00 72 1011.7
20260904033010 84 134 4.3 4.3 0.00 0.00 0.00 72 1011.6
20260904032510 84 110 0.9 3.5 0.00 0.00 0.00 71 1011.6
20260904032011 84 135 3.5 10.4 0.00 0.00 0.00 71 1011.5
20260904030511 84 115 1.7 5.2 0.00 0.00 0.00 70 1011.5
20260904030010 84 98 0.9 7.0 0.00 0.00 0.00 70 1011.3
20260904025010 85 96 5.2 7.8 0.00 0.00 0.00 69 1011.1
20260904024510 85 119 0.9 7.8 0.00 0.00 0.00 69 1011.2
20260904024010 85 86 1.7 7.8 0.00 0.00 0.00 68 1011.2
20260904023510 85 142 0.9 5.2 0.00 0.00 0.00 68 1011.2
20260904023010 85 111 2.6 5.2 0.00 0.00 0.00 68 1011.1
20260904022510 85 120 0.9 7.8 0.00 0.00 0.00 67 1011.0
20260904022009 85 95 2.6 7.8 0.00 0.00 0.00 67 1010.9
20260904021509 86 141 3.5 8.7 0.00 0.00 0.00 66 1011.0
20260904021010 86 121 6.1 8.7 0.00 0.00 0.00 66 1010.9
20260904020509 86 132 4.3 7.0 0.00 0.00 0.00 65 1010.9
20260904020009 86 157 7.0 7.0 0.00 0.00 0.00 65 1010.8
20260904015509 86 68 0.9 7.0 0.00 0.00 0.00 65 1010.6
20260904015009 86 135 2.6 7.0 0.00 0.00 0.00 64 1010.4
20260904014509 87 112 0.9 6.1 0.00 0.00 0.00 64 1010.2
20260904014009 87 134 6.1 8.7 0.00 0.00 0.00 64 1010.2
20260904013509 87 170 4.3 8.7 0.00 0.00 0.00 63 1010.1
20260904013009 87 133 6.1 8.7 0.00 0.00 0.00 63 1010.1
20260904012508 87 104 1.7 8.7 0.00 0.00 0.00 63 1010.0
20260904011508 87 128 4.3 7.0 0.00 0.00 0.00 62 1010.0
20260904011009 87 123 0.9 9.6 0.00 0.00 0.00 62 1010.0
20260904010008 88 202 6.1 8.7 0.00 0.00 0.00 61 1010.1
20260904005508 88 108 8.7 8.7 0.00 0.00 0.00 61 1010.0
20260904005009 88 124 1.7 13.9 0.00 0.00 0.00 60 1010.0
20260904004508 88 101 5.2 13.9 0.00 0.00 0.00 60 1010.1
20260904004008 89 132 0.9 14.8 0.00 0.00 0.00 60 1010.1
20260904003508 89 136 6.1 14.8 0.00 0.00 0.00 60 1010.0
20260904003008 89 90 5.2 12.2 0.00 0.00 0.00 59 1009.9
20260904002508 89 156 9.6 9.6 0.00 0.00 0.00 59 1009.9
20260904002008 90 170 5.2 9.6 0.00 0.00 0.00 59 1010.1
20260904001508 90 130 3.5 10.4 0.00 0.00 0.00 59 1010.0
20260904001008 90 179 3.5 10.4 0.00 0.00 0.00 59 1010.0
20260904000508 90 256 2.6 11.3 0.00 0.00 0.00 58 1009.9
20260903235508 91 114 1.7 7.8 0.00 0.00 0.00 58 1009.8
20260903235007 91 147 4.3 13.0 0.00 0.00 0.00 58 1009.8
20260903234507 91 132 2.6 13.0 0.00 0.00 0.00 58 1009.8
20260903234008 91 121 0.9 7.8 0.00 0.00 0.00 57 1009.8
20260903233508 91 138 2.6 7.0 0.00 0.00 0.00 57 1009.7
20260903233007 92 209 2.6 7.8 0.00 0.00 0.00 57 1009.6
20260903232507 92 141 7.8 12.2 0.00 0.00 0.00 56 1009.5
20260903232008 92 195 4.3 12.2 0.00 0.00 0.00 55 1009.6
20260903231508 93 123 1.7 8.7 0.00 0.00 0.00 57 1009.6
20260903231007 92 120 6.1 11.3 0.00 0.00 0.00 57 1009.5
20260903225507 92 123 4.3 10.4 0.00 0.00 0.00 56 1009.4
20260903225008 93 61 7.0 11.3 0.00 0.00 0.00 56 1009.3
20260903224507 93 112 6.1 11.3 0.00 0.00 0.00 55 1009.3
20260903224007 94 83 10.4 11.3 0.00 0.00 0.00 55 1009.2
20260903223007 95 128 9.6 13.0 0.00 0.00 0.00 49 1009.2
20260903222507 96 163 3.5 13.9 0.00 0.00 0.00 47 1009.1
20260903222007 96 156 6.1 13.9 0.00 0.00 0.00 47 1009.0
20260903221507 96 80 1.7 13.0 0.00 0.00 0.00 47 1008.9
20260903221007 96 109 3.5 13.0 0.00 0.00 0.00 47 1008.9
20260903220006 96 86 7.0 7.0 0.00 0.00 0.00 47 1008.9
20260903215507 97 148 4.3 6.1 0.00 0.00 0.00 46 1009.0
20260903215006 97 360 1.7 10.4 0.00 0.00 0.00 46 1009.0
20260903214006 98 86 7.0 12.2 0.00 0.00 0.00 45 1009.0
20260903213507 99 100 2.6 13.0 0.00 0.00 0.00 45 1009.0
20260903212506 100 101 1.7 8.7 0.00 0.00 0.00 43 1008.9
20260903212006 100 155 2.6 8.7 0.00 0.00 0.00 44 1008.9
20260903211506 99 169 3.5 3.5 0.00 0.00 0.00 44 1008.9
20260903211006 99 192 0.9 2.6 0.00 0.00 0.00 45 1009.0
20260903210506 99 111 0.9 3.5 0.00 0.00 0.00 45 1009.2
20260903205506 99 141 0.9 10.4 0.00 0.00 0.00 45 1009.2
20260903205006 99 126 3.5 10.4 0.00 0.00 0.00 45 1009.4
20260903204506 99 96 0.9 6.1 0.00 0.00 0.00 46 1009.3
20260903204006 99 130 6.1 7.0 0.00 0.00 0.00 46 1009.5
20260903203506 99 199 4.3 7.0 0.00 0.00 0.00 46 1009.5
20260903203006 99 188 0.9 1.7 0.00 0.00 0.00 46 1009.6
20260903202506 99 134 0.9 2.6 0.00 0.00 0.00 47 1009.7
20260903202006 99 153 2.6 2.6 0.00 0.00 0.00 47 1009.8
20260903201506 99 90 0.9 5.2 0.00 0.00 0.00 47 1009.8
20260903201006 99 72 0.9 10.4 0.00 0.00 0.00 47 1009.8
20260903200506 99 159 4.3 10.4 0.00 0.00 0.00 47 1009.8
20260903195505 100 112 6.1 11.3 0.00 0.00 0.00 47 1010.0
20260903195006 100 119 9.6 11.3 0.00 0.00 0.00 47 1010.0
20260903194506 100 172 1.7 7.0 0.00 0.00 0.00 47 1010.0
20260903194005 100 130 3.5 7.0 0.00 0.00 0.00 47 1010.1
20260903193505 100 86 3.5 3.5 0.00 0.00 0.00 48 1010.2
20260903193005 99 284 1.7 7.0 0.00 0.00 0.00 48 1010.3
20260903192505 99 138 7.0 7.0 0.00 0.00 0.00 49 1010.4